Flag for Germany Weather past 2 weeks in Schwedt/Oder, Brandenburg, Germany

Now
50 °F

Scattered clouds.


Feels Like: 47 °F
Forecast: 43 / 65 °F
Wind: 7 mph from South

Location: Szczecin Airport

Current Time: May 28, 2015 at 8:36:55 AM

Latest Report: May 28, 2015 at 8:00 AM


Visibility: N/A

Pressure: 30.01 "Hg

Humidity: 76%

Dew point: 43 °F

Location of Schwedt/OderLocation

Historic Weather in Schwedt/Oder — Graph

°F

Schwedt/Oder temperature yesterday

Maximum temperature yesterday: 55 °F (at 12:30 PM)
Minimum temperature yesterday: 43 °F (at 12:00 AM)
Average temperature yesterday: 50 °F

Past Weeks' High & Low Weather Summary

 TemperatureHumidityPressure
High68 °F (May 24, 6:30 PM)100% (May 15, 2:00 AM)30.30 "Hg (May 15, 2:00 AM)
Low36 °F (May 24, 4:30 AM)37% (May 19, 6:00 PM)29.56 "Hg (May 19, 4:30 AM)
Average52 °F72%29.99 "Hg
* Reported May 13 7:00 AM — May 28 7:30 AM, Schwedt/Oder, Weather by CustomWeather, © 2015

Note: Actual official high and low records may vary slightly from our data, if they occured in-between our weather recording intervals... More about our weather records

Advertising

Schwedt/Oder weather history for previous 24 hours

 ConditionsComfort  
Time TempWeatherWind HumidityBarometerVisibility
7:30 AM
Thu, May 28
48 °FSunny.6 mph82%30.01 "Hg10 mi
7:00 AM46 °FSunny.5 mph87%30.01 "Hg10 mi
6:30 AM45 °FSunny.5 mph87%30.01 "Hg10 mi
6:00 AM43 °FSunny.3 mph93%30.01 "Hg10 mi
5:30 AM39 °FClear.5 mph93%30.01 "Hg10 mi
5:00 AM37 °FFog.3 mph93%30.01 "HgN/A
4:30 AM37 °FFog.2 mph93%30.04 "HgN/A
4:00 AM39 °FClear.3 mph93%30.04 "Hg10 mi
3:30 AM39 °FClear.No wind93%30.04 "Hg10 mi
3:00 AM39 °FClear.2 mph93%30.04 "Hg10 mi
2:30 AM41 °FClear.2 mph87%30.04 "Hg10 mi
2:00 AM41 °FClear.2 mph87%30.04 "Hg10 mi
1:30 AM45 °FClear.No wind87%30.04 "Hg10 mi
1:00 AM45 °FClear.2 mph81%30.04 "Hg10 mi
12:30 AM45 °FClear.3 mph81%30.07 "Hg10 mi
12:00 AM46 °FClear.No wind82%30.07 "Hg10 mi
11:00 PM
Wed, May 27
48 °FPassing clouds.2 mph76%30.07 "HgN/A
10:30 PM50 °FPassing clouds.2 mph71%30.07 "HgN/A
10:00 PM50 °FPassing clouds.3 mph71%30.07 "HgN/A
9:30 PM52 °FScattered clouds.3 mph72%30.07 "HgN/A
9:00 PM52 °FSunny.5 mph72%30.07 "Hg10 mi
8:30 PM52 °FSunny.3 mph67%30.07 "Hg10 mi
8:00 PM52 °FSunny.5 mph67%30.07 "Hg10 mi
7:30 PM54 °FPassing clouds.7 mph63%30.07 "HgN/A
7:00 PM54 °FScattered clouds.6 mph63%30.07 "HgN/A
6:30 PM54 °FScattered clouds.6 mph58%30.07 "HgN/A
6:00 PM54 °FScattered clouds.8 mph63%30.07 "HgN/A
5:30 PM54 °FPassing clouds.10 mph63%30.07 "HgN/A
5:00 PM54 °FPartly sunny.10 mph63%30.07 "HgN/A
4:30 PM54 °FPartly sunny.10 mph63%30.07 "HgN/A
4:00 PM54 °FPassing clouds.14 mph63%30.07 "HgN/A
3:30 PM55 °FScattered clouds.15 mph59%30.07 "HgN/A
3:00 PM55 °FScattered clouds.10 mph63%30.07 "HgN/A
2:30 PM54 °FPartly sunny.10 mph67%30.07 "HgN/A
2:00 PM54 °FPartly sunny.16 mph63%30.07 "HgN/A
1:30 PM54 °FPartly sunny.13 mph67%30.07 "HgN/A
1:00 PM54 °FScattered clouds.12 mph72%30.07 "HgN/A
12:30 PM55 °FPartly sunny.9 mph63%30.07 "HgN/A
12:00 PM52 °FBroken clouds.No wind82%30.07 "HgN/A
11:30 AM50 °FPartly sunny.6 mph82%30.07 "HgN/A
11:00 AM52 °FLight rain. Partly sunny.10 mph77%30.07 "HgN/A
10:30 AM52 °FPartly sunny.10 mph72%30.07 "HgN/A
10:00 AM52 °FBroken clouds.12 mph72%30.07 "HgN/A
9:30 AM52 °FBroken clouds.12 mph72%30.07 "HgN/A
9:00 AM52 °FScattered clouds.10 mph67%30.04 "HgN/A
8:30 AM50 °FScattered clouds.9 mph76%30.04 "HgN/A
8:00 AM48 °FScattered clouds.6 mph87%30.04 "HgN/A
Weather by CustomWeather, © 2015

See weather overviewHow to use our weather pages